Wind_Gust
17 16 17 17 18 17 17 17 17 16 16 15 16 15 16 17 17 17 16 15 17 19 19 19 18 19 19 18 20 18 18 17 18 18 19 20 19 18 20 19 18 19
18 18 18 18 19 18 19 19 18 18 17 16 16 15 16 17 17 17 17 17 18 20 20 20 20 20 20 20 20 20 19 19 19 20 20 19 19 18 18 19 18 19
18 18 19 18 19 18 18 19 20 19 18 18 17 17 17 17 17 18 18 18 18 19 21 20 20 21 20 20 19 18 20 19 20 21 21 19 20 20 20 20 20 20
18 18 18 18 18 18 18 19 20 20 19 19 19 19 19 18 18 19 19 18 19 20 20 21 21 21 20 20 19 19 18 17 19 20 19 19 19 20 20 19 20 21
17 18 18 19 19 19 18 19 20 20 20 20 19 19 20 19 19 20 20 20 20 20 20 20 20 21 20 20 20 20 19 19 20 20 20 19 19 20 19 20 21 21
19 20 20 20 20 20 21 20 20 20 20 19 20 20 20 19 20 20 20 20 20 21 19 20 20 20 20 20 20 21 20 20 21 21 21 20 20 20 20 20 21 22
19 19 20 21 20 21 21 20 21 20 21 19 19 20 19 20 20 20 20 20 20 21 20 20 20 20 20 19 20 21 21 20 20 22 22 22 21 21 20 20 22 23
20 20 21 22 21 21 22 23 21 21 20 20 19 20 19 20 20 19 19 19 19 20 20 20 20 21 20 19 21 21 20 21 21 21 22 22 22 22 22 22 21 23
21 22 22 21 22 22 23 23 21 19 20 20 20 20 20 20 19 18 18 18 19 19 20 20 21 20 20 20 20 21 21 21 22 22 22 22 23 23 24 24 23 23
22 22 22 21 21 21 20 19 19 19 19 20 20 19 20 18 18 19 18 18 19 20 20 20 21 21 21 21 21 21 22 21 22 22 21 22 22 22 23 24 24 24
22 22 22 22 22 21 20 20 19 19 19 20 19 20 19 18 18 17 18 19 20 21 21 22 22 23 23 23 22 21 21 21 22 21 21 22 22 22 19 23 24 23
21 21 22 21 21 20 19 19 19 19 19 19 19 19 18 18 18 18 19 20 20 20 21 22 23 24 24 25 23 22 21 21 22 22 22 22 22 23 23 23 24 25
21 21 22 21 19 18 18 19 19 18 19 20 19 19 19 18 19 19 18 19 20 20 22 23 23 25 27 26 25 24 23 23 23 22 23 23 22 24 24 23 23 24
20 20 19 18 18 18 18 18 18 19 19 18 18 18 19 19 19 18 18 18 20 20 21 23 24 26 28 29 27 26 25 23 23 23 23 23 23 24 24 24 24 24
18 17 18 18 18 19 19 19 19 18 19 19 18 18 17 18 18 19 19 20 20 20 22 24 25 28 30 31 30 27 25 22 22 22 23 23 23 24 24 24 23 24
19 18 19 18 19 19 19 19 19 19 19 20 20 20 19 18 18 18 19 20 20 21 21 23 26 27 28 26 23 29 25 22 22 22 22 22 24 24 24 24 24 25
19 19 19 19 19 19 19 20 20 19 20 20 20 20 19 19 19 20 21 21 21 21 21 22 25 29 24 21 22 25 25 22 22 24 23 24 24 25 25 25 25 26
19 19 19 20 20 20 20 20 20 20 21 21 21 20 20 19 20 21 21 21 21 21 22 23 23 21 20 22 22 24 23 24 22 24 25 25 26 25 25 26 27 28
18 18 19 20 20 20 20 20 21 22 22 21 21 19 19 21 21 21 21 22 21 21 21 23 25 21 21 24 24 24 22 22 22 24 26 26 25 25 25 26 27 28
18 19 21 20 20 21 21 22 22 22 20 19 18 18 20 20 20 22 22 22 21 20 20 22 27 23 23 25 26 26 24 21 22 24 25 25 24 25 25 25 26 28
19 20 21 20 21 21 22 22 21 20 20 19 19 19 20 20 20 21 22 22 22 21 20 21 27 22 22 24 24 25 25 19 22 23 25 24 24 24 24 24 25 27
20 20 20 21 21 21 21 21 21 20 19 18 19 19 19 19 19 21 22 23 22 22 21 22 25 21 22 23 24 26 27 19 22 24 25 25 23 24 24 25 25 27
20 21 21 21 21 21 21 20 20 19 18 17 19 20 20 20 19 20 22 23 23 23 22 21 24 23 21 23 23 26 22 22 21 23 26 26 25 25 25 25 26 27
20 21 21 20 20 21 20 19 18 18 17 17 18 19 20 20 18 19 19 22 23 24 24 21 22 22 20 21 22 24 25 24 24 24 26 26 26 26 26 26 26 26
20 20 20 20 20 19 18 18 18 17 17 17 17 18 19 19 18 19 19 20 22 23 19 22 23 21 19 21 23 23 27 25 26 26 25 26 26 27 26 27 28 24
18 18 18 19 19 18 17 17 16 17 17 17 18 19 19 19 18 18 18 19 19 21 24 25 25 25 25 20 22 21 22 28 27 27 25 25 26 27 28 27 28 30
Wind_Speed
7 6 6 5 5 5 4 4 4 4 4 4 4 5 5 6 6 6 7 6 7 7 8 8 8 8 7 7 8 7 7 8 8 7 9 9 8 9 9 10 11 10
7 7 6 6 5 5 5 5 5 5 5 5 5 5 6 6 7 7 7 7 8 8 8 8 8 8 8 7 8 7 6 7 8 7 9 10 9 9 9 11 10 9
8 8 7 7 6 6 6 6 6 6 6 6 7 6 6 7 7 8 8 8 7 7 8 8 8 8 8 8 7 6 7 7 8 9 9 9 8 9 9 9 9 11
8 7 7 7 7 6 6 6 6 6 6 7 7 7 7 7 7 8 7 8 7 8 8 8 9 8 8 9 8 6 7 7 8 9 9 8 8 9 9 9 9 10
8 8 8 7 7 7 7 7 8 7 7 7 7 8 8 7 7 7 7 6 7 8 8 8 9 9 9 8 8 7 7 6 7 8 8 9 9 9 9 9 10 11
9 8 8 8 8 7 7 8 8 7 7 8 8 7 8 7 7 7 7 7 7 8 8 9 9 9 9 8 8 8 7 7 7 9 9 9 9 9 9 9 10 11
9 9 9 8 9 9 8 8 8 8 8 7 7 8 7 7 8 7 7 8 8 8 9 9 9 9 9 8 8 9 8 8 9 9 9 8 9 10 10 10 11 12
10 9 9 8 9 10 10 10 9 9 8 8 8 7 7 8 8 7 7 8 8 9 9 10 9 9 9 8 9 9 9 7 8 10 10 10 10 11 11 10 11 12
10 10 10 10 10 9 10 9 8 8 7 7 7 7 8 7 8 8 8 8 8 9 9 10 10 10 9 9 9 10 10 9 9 9 10 11 11 12 12 12 12 12
10 10 10 9 10 9 9 8 7 7 7 8 8 7 7 7 8 8 8 8 8 9 10 10 11 10 10 10 10 10 10 10 10 9 10 10 11 12 12 12 12 12
9 9 9 10 9 8 9 8 8 8 7 8 7 8 7 7 7 7 8 8 8 10 10 11 11 11 12 11 10 10 9 9 9 9 10 10 11 11 12 12 12 12
9 9 10 10 8 8 8 8 7 7 7 7 7 7 7 7 8 7 8 9 9 10 10 11 11 11 12 12 11 11 9 8 9 9 10 10 11 12 12 12 12 13
9 8 7 8 8 8 7 7 7 7 7 7 7 7 8 8 8 9 8 8 9 9 11 11 11 12 12 13 12 11 10 9 8 9 10 10 11 12 12 12 12 12
8 8 8 8 7 7 7 7 7 7 7 7 7 8 8 8 8 8 8 8 8 9 10 10 11 12 13 14 12 11 10 8 8 8 9 10 11 12 12 12 12 12
8 7 7 8 8 8 8 7 7 7 7 7 7 8 7 8 8 8 8 8 9 9 10 10 11 11 11 13 13 12 10 8 9 9 10 10 11 12 12 12 12 12
8 8 8 8 8 8 8 7 7 7 7 8 8 8 8 7 8 8 8 8 9 9 9 9 10 10 15 19 16 12 10 8 8 9 10 11 11 12 12 12 13 13
8 8 8 9 8 8 7 8 8 7 7 8 8 8 8 8 8 9 8 8 8 9 10 9 10 12 17 15 16 17 11 9 8 8 9 10 11 13 12 13 13 14
9 9 9 9 8 8 8 7 7 8 8 8 8 9 8 8 8 8 8 7 7 8 9 10 11 15 16 17 17 18 15 11 7 8 8 10 12 12 12 13 14 14
9 9 8 8 8 8 7 8 8 8 8 8 8 8 8 8 8 8 8 7 7 7 9 11 12 16 17 18 18 18 17 14 7 9 9 10 12 12 13 13 13 14
9 9 8 9 8 8 9 9 9 9 8 7 7 7 8 8 8 9 8 8 7 7 8 10 14 16 17 18 18 19 17 15 8 9 10 11 12 12 11 13 13 14
10 9 9 9 9 9 9 9 8 8 8 7 7 7 7 7 7 8 7 7 7 7 7 9 11 17 17 18 18 19 20 15 8 9 10 10 11 12 12 12 13 13
9 9 9 9 9 9 9 9 9 8 8 7 7 7 7 7 7 7 7 8 8 8 7 9 12 17 17 18 19 19 22 7 9 8 10 11 11 13 12 12 13 13
9 10 10 10 9 9 9 9 8 8 8 7 8 7 7 7 7 6 7 8 8 8 8 8 11 15 16 17 18 20 16 8 9 8 9 10 11 13 12 13 13 13
10 10 10 9 9 9 9 8 7 7 7 7 8 7 7 7 6 7 7 7 8 10 9 8 10 14 16 16 18 19 18 10 9 8 10 11 11 13 12 12 14 12
9 9 9 9 9 8 7 8 8 7 7 6 7 7 7 7 6 7 7 7 7 8 11 11 10 12 14 14 16 17 16 10 10 9 10 12 12 12 12 12 13 12
8 9 9 8 8 8 7 7 7 7 7 7 7 7 7 6 6 7 7 7 6 7 7 9 10 10 13 13 15 15 17 13 9 9 11 12 12 12 12 12 13 13
Wind_Direction
69 74 73 70 62 56 50 54 57 61 58 59 60 53 41 37 30 32 30 29 23 21 20 18 16 10 5 10 9 5 5 8 353 356 344 341 335 332 326 329 322 313
69 69 73 71 69 63 63 62 65 67 66 60 58 58 51 43 40 39 40 38 40 37 24 21 17 14 12 11 9 11 8 8 1 360 348 348 347 342 341 337 327 329
68 71 71 76 76 71 68 67 67 66 65 64 64 60 60 54 50 53 50 44 37 29 27 21 19 15 12 12 6 12 7 5 7 356 350 349 345 344 339 336 335 332
67 68 70 71 73 72 66 67 66 65 64 65 61 62 62 59 56 53 50 40 33 32 26 23 18 15 12 12 6 10 4 4 7 356 349 348 347 342 339 336 334 332
69 71 72 72 73 68 65 68 69 67 65 64 65 62 61 59 57 53 47 37 35 33 28 25 21 18 11 12 7 8 3 3 3 355 351 351 351 345 341 339 336 334
70 71 70 71 71 71 69 68 67 70 70 66 63 64 62 60 56 52 45 42 39 34 33 28 25 19 14 9 7 9 2 360 359 353 354 354 352 348 343 340 337 337
77 76 76 77 76 73 74 73 73 72 72 72 68 64 63 62 59 52 48 43 43 39 34 30 25 20 16 7 8 5 2 359 355 353 355 356 351 350 350 344 341 337
81 80 79 78 79 77 74 71 68 67 68 72 71 65 61 60 58 55 50 48 43 39 37 31 25 23 14 9 7 2 359 1 356 356 356 356 351 351 352 349 341 339
82 82 82 80 78 76 73 72 71 70 69 71 71 70 63 60 59 57 52 48 47 43 37 31 26 19 15 8 6 1 357 359 359 358 357 355 354 352 349 346 343 341
83 83 79 80 80 75 73 71 71 73 71 69 68 67 69 63 58 56 55 50 47 44 39 33 26 20 14 8 6 0 357 358 356 358 358 354 355 351 348 345 345 341
83 82 83 82 79 75 75 75 73 71 66 67 69 66 61 62 60 56 54 53 46 41 39 34 27 20 13 7 5 1 357 359 359 0 359 354 356 350 348 346 343 342
87 87 87 86 82 79 74 72 71 70 70 64 60 65 63 59 59 51 48 50 48 44 39 34 28 20 13 5 360 357 354 359 1 0 359 358 358 353 351 349 344 340
91 88 87 83 79 76 76 73 68 65 64 63 59 59 59 59 56 58 51 49 49 45 40 33 28 22 13 3 356 355 350 355 359 3 0 2 357 355 354 349 347 344
93 91 85 81 80 77 74 71 70 68 65 64 61 58 58 54 54 56 57 53 50 49 43 35 29 22 14 1 355 351 344 349 358 1 3 358 359 358 356 353 350 349
101 93 91 87 83 80 76 73 69 65 65 65 63 65 57 56 56 55 55 56 54 50 46 38 30 22 15 2 354 350 341 347 358 2 359 0 1 1 357 356 353 348
104 101 95 91 86 83 79 76 73 70 68 64 63 61 61 56 57 54 53 53 52 48 47 40 30 22 0 356 354 353 347 353 3 4 3 3 3 4 0 358 354 350
104 101 99 93 88 83 82 79 76 75 69 68 64 60 60 59 55 57 52 50 52 50 43 40 33 13 356 356 350 347 343 337 358 359 3 3 7 5 358 356 352 351
100 96 93 90 87 81 78 79 78 74 71 66 64 64 61 60 58 54 54 50 50 51 46 37 30 11 356 359 353 349 342 329 354 5 6 5 8 5 358 356 353 350
99 96 93 91 89 90 86 79 73 70 69 67 65 64 64 61 55 53 50 49 47 50 47 38 28 11 359 360 355 348 339 327 1 6 10 7 8 4 359 357 354 351
108 105 101 96 91 83 78 74 69 68 68 66 68 67 65 63 59 53 48 46 42 42 49 43 28 10 2 360 355 347 339 323 11 8 11 12 7 5 359 358 357 354
109 105 100 95 89 83 77 71 68 68 64 62 63 59 59 58 55 57 50 43 41 39 42 48 37 16 6 359 357 347 338 313 20 10 13 14 8 5 1 1 1 358
108 106 101 95 89 82 77 73 69 66 67 65 63 64 61 62 59 56 54 51 41 33 35 44 45 25 7 2 355 353 331 340 11 16 10 11 10 8 6 2 5 359
108 104 100 95 89 85 79 74 72 68 64 62 65 62 61 60 63 57 53 53 48 36 30 41 45 30 12 5 358 354 341 1 8 15 9 10 7 10 6 4 5 2
108 103 101 96 89 84 80 76 73 70 67 59 60 62 62 59 60 62 60 57 53 46 26 31 42 41 17 8 0 357 346 351 12 8 10 8 7 11 5 5 4 23
105 102 99 96 92 88 82 78 71 67 66 65 66 67 65 65 57 60 61 58 56 58 44 33 34 43 24 11 5 2 357 353 12 9 6 10 7 8 7 4 4 6
106 103 100 97 96 91 84 78 73 71 66 65 61 59 61 57 58 59 57 57 50 49 56 43 32 42 34 10 10 5 2 348 16 11 5 7 8 8 4 4 3 359